[[{"header":{"parameterUnit":"m.s-1","parameterCategory":2,"la1":30.2991,"la2":30.254,"lo1":-89.0895,"lo2":-89.0444,"dy":0.0017,"dx":0.0017,"nx":28,"ny":28,"refTime":"2026-02-10T03:00:00:Z","depth":"0","parameterNumber":2,"parameterNumberName":"U-component_of_CURRENTS"},"data":[0,0,0,0,0,0,0,0,0,0,0,0,0,0,0,0,0,0,0,0,0,0,0,0,0,0,0,0,0,0,0,0,0,0,0,0,0,0,0,0,0,0,0,0,0,0,0,0,0,0,0,0,0,0,0,0,0,0,-0.2094,-0.2094,0,-0.2042,-0.2041,-0.2039,-0.1938,-0.1937,-0.1936,-0.1935,-0.1745,-0.1741,-0.1737,0,0,0,0,0,0,0,0,0,0,0,0,0,-0.1945,-0.1949,-0.2094,-0.2094,-0.2095,-0.2042,-0.2041,-0.2039,-0.1938,-0.1937,-0.1936,-0.1934,-0.1746,-0.1741,-0.1737,0,0,0,0,0,0,0,0,0,0,0,0,0,-0.1955,-0.195,-0.2094,-0.2045,-0.204,-0.2043,-0.2041,-0.2039,-0.1939,-0.1937,-0.1935,-0.1934,-0.1748,-0.1742,-0.1736,-0.1733,0,0,-0.1718,-0.1715,0,0,0,0,0,0,0,0,-0.1955,-0.1959,-0.2052,-0.2048,-0.2044,-0.2003,-0.1919,-0.1933,-0.1939,-0.1968,-0.1935,-0.1933,-0.1826,-0.1813,-0.1796,-0.1724,-0.1716,-0.1717,-0.1713,-0.1711,-0.1709,0,0,0,0,0,0,0,-0.1954,-0.196,-0.2064,-0.2052,-0.2047,-0.1971,-0.1971,-0.192,-0.1897,-0.1965,-0.196,-0.1969,-0.1821,-0.1802,-0.179,-0.1713,-0.1717,-0.1712,-0.1708,-0.1706,-0.1683,-0.1686,0,0,0,0,0,0,-0.1991,-0.1961,-0.2066,-0.2063,-0.2004,-0.1976,-0.1975,-0.201,-0.19,-0.1886,-0.1971,-0.1965,-0.1813,-0.1798,-0.1783,-0.1841,-0.1711,-0.1705,-0.1702,-0.168,-0.1684,-0.1687,0,0,0,0,0,0,-0.1988,-0.2002,-0.2068,-0.2016,-0.202,-0.1983,-0.2021,-0.201,-0.1989,-0.1908,-0.1888,-0.1961,-0.1811,-0.1792,-0.1749,-0.183,-0.1703,-0.1697,-0.1676,-0.1681,-0.1685,-0.1913,0,0,0,0,0,0,-0.1984,-0.2002,-0.2024,-0.202,-0.2025,-0.2081,-0.2023,-0.2011,-0.2002,-0.1993,-0.1894,-0.1874,-0.1808,-0.1758,-0.1743,-0.182,-0.1692,-0.1673,-0.1678,-0.1684,-0.1902,-0.1925,-0.1945,0,0,0,0,0,-0.198,-0.2014,-0.2026,-0.2038,-0.2064,-0.2083,-0.2078,-0.2036,-0.2004,-0.2006,-0.1941,-0.1877,-0.1784,-0.1755,-0.1736,-0.1814,-0.167,-0.1677,-0.1683,-0.1892,-0.192,-0.1944,0,0,0,0,0,0,-0.1929,-0.2009,-0.202,-0.207,-0.2088,-0.207,-0.2064,-0.2048,-0.2,-0.1983,-0.1894,-0.1871,-0.1871,-0.1805,-0.1776,-0.1825,-0.1726,-0.1729,-0.1891,-0.1916,-0.1938,-0.1926,-0.1687,0,0,0,0,0,-0.1947,-0.2003,-0.2051,-0.2081,-0.2102,-0.2088,-0.2086,-0.2074,-0.2043,-0.2019,-0.1963,-0.1909,-0.1888,-0.1869,-0.1823,-0.1837,-0.1763,-0.188,-0.1902,-0.1921,-0.19,-0.1893,-0.1912,-0.1709,-0.1709,-0.1709,0,0,-0.1922,-0.1981,-0.2001,-0.2076,-0.2079,-0.2123,-0.2079,-0.2094,-0.2122,-0.2007,-0.2005,-0.1969,-0.1904,-0.1928,-0.1925,-0.1881,-0.1943,-0.1929,-0.1946,-0.1914,-0.1902,-0.1921,-0.1939,-0.1713,-0.1713,-0.1712,0,0,-0.1923,-0.1973,-0.2031,-0.2071,-0.2124,-0.2132,-0.2149,-0.2162,-0.2158,-0.2166,-0.2112,-0.213,-0.2061,-0.2071,-0.2058,-0.2168,-0.205,-0.2156,-0.2262,-0.2259,-0.2275,-0.2288,-0.2232,-0.2238,-0.2177,-0.2177,-0.2178,0,-0.189,-0.1985,-0.2036,-0.2109,-0.2141,-0.2149,-0.2202,-0.2215,-0.2208,-0.2224,-0.2185,-0.2174,-0.2141,-0.22,-0.225,-0.2222,-0.2157,-0.2177,-0.2287,-0.2299,-0.2308,-0.2247,-0.2251,-0.2189,-0.2188,-0.2186,-0.2185,0,-0.1943,-0.202,-0.205,-0.2163,-0.2205,-0.2243,-0.2302,-0.2335,-0.2337,-0.235,-0.2397,-0.2372,-0.236,-0.2397,-0.2349,-0.2433,-0.2344,-0.2313,-0.2225,-0.2343,-0.227,-0.227,-0.2206,-0.2202,-0.2198,-0.2195,0,0,-0.1856,-0.2053,-0.206,-0.2131,-0.224,-0.2275,-0.236,-0.2435,-0.2478,-0.2504,-0.2547,-0.2596,-0.2579,-0.2562,-0.2548,-0.2571,-0.2621,-0.2474,-0.2468,-0.242,-0.2555,-0.2456,-0.2445,-0.2597,-0.2598,-0.2599,-0.248,0,-0.187,-0.2021,-0.2116,-0.2221,-0.2295,-0.237,-0.2445,-0.2519,-0.2556,-0.2598,-0.2638,-0.265,-0.2644,-0.2644,-0.2682,-0.2608,-0.2627,-0.2651,-0.2441,-0.2433,-0.2336,-0.2446,-0.2331,-0.2212,-0.2479,-0.2479,-0.2479,0,-0.1882,-0.1993,-0.2116,-0.2286,-0.2322,-0.238,-0.2499,-0.2574,-0.2666,-0.2689,-0.2742,-0.2725,-0.2777,-0.274,-0.2713,-0.2712,-0.2649,-0.2606,-0.26,-0.2416,-0.2336,-0.2134,-0.22,-0.2185,-0.2477,-0.2477,-0.2477,0,-0.1794,-0.1981,-0.208,-0.2134,-0.2325,-0.2383,-0.2467,-0.2586,-0.2637,-0.2725,-0.2729,-0.2791,-0.2772,-0.2746,-0.2664,-0.2673,-0.2585,-0.2587,-0.2447,-0.2436,-0.2249,-0.222,-0.2272,-0.2573,-0.2573,-0.2573,-0.2574,0,-0.1777,-0.1843,-0.2042,-0.2095,-0.2186,-0.2341,-0.2426,-0.2521,-0.2624,-0.2662,-0.2746,-0.2743,-0.2764,-0.2714,-0.2661,-0.2532,-0.2581,-0.2461,-0.2413,-0.2325,-0.2306,-0.2205,-0.2226,-0.2569,-0.257,-0.2571,-0.2571,0,-0.1648,-0.1798,-0.19,-0.2096,-0.215,-0.2202,-0.2365,-0.2422,-0.254,-0.258,-0.2591,-0.2671,-0.2616,-0.2603,-0.2535,-0.2492,-0.235,-0.2346,-0.2216,-0.2157,-0.2031,-0.2067,-0.2005,-0.1944,-0.2184,-0.2181,-0.2179,0,-0.1589,-0.1636,-0.1833,-0.1883,-0.196,-0.2073,-0.2147,-0.2332,-0.2384,-0.2511,-0.2496,-0.2498,-0.2463,-0.2344,-0.2274,-0.2164,-0.2197,-0.2012,-0.2049,-0.2013,-0.2019,-0.2059,-0.2016,-0.1885,-0.1881,-0.1877,-0.1874,0,-0.1418,-0.1487,-0.1574,-0.17,-0.1784,-0.189,-0.2007,-0.2041,-0.224,-0.2285,-0.2309,-0.2298,-0.222,-0.2088,-0.1985,-0.1912,-0.1965,-0.1929,-0.1939,-0.1832,-0.1828,-0.1747,-0.1949,-0.184,-0.1843,-0.1846,-0.1848,-0.1849,-0.1222,-0.1235,-0.136,-0.146,-0.1575,-0.1665,-0.1683,-0.1826,-0.1898,-0.1937,-0.205,-0.1981,-0.1952,-0.1795,-0.1722,-0.1596,-0.1688,-0.1566,-0.1618,-0.1667,-0.1607,-0.1716,-0.1535,-0.1536,-0.1538,-0.1539,-0.154,0,-0.0956,-0.1024,-0.111,-0.1238,-0.1291,-0.1435,-0.1547,-0.1538,-0.1565,-0.1632,-0.1645,-0.1607,-0.1515,-0.1488,-0.1408,-0.1328,-0.1314,-0.1307,-0.136,-0.1335,-0.1449,-0.1436,-0.1168,-0.1168,-0.1168,-0.1168,-0.1168,-0.1168,-0.082,-0.0808,-0.0893,-0.0912,-0.1007,-0.1001,-0.1027,-0.1058,-0.1082,-0.1045,-0.1036,-0.104,-0.1173,-0.1382,-0.1308,-0.1229,-0.1226,-0.1167,-0.1221,-0.1334,-0.1364,-0.1392,-0.1387,-0.1113,-0.1114,-0.1039,-0.1039,-0.1038]},{"header":{"parameterUnit":"m.s-1","parameterCategory":2,"la1":30.2991,"la2":30.254,"lo1":-89.0895,"lo2":-89.0444,"dy":0.0017,"dx":0.0017,"nx":28,"ny":28,"refTime":"2026-02-10T03:00:00:Z","depth":"0","parameterNumber":3,"parameterNumberName":"V-component_of_CURRENTS"},"data":[0,0,0,0,0,0,0,0,0,0,0,0,0,0,0,0,0,0,0,0,0,0,0,0,0,0,0,0,0,0,0,0,0,0,0,0,0,0,0,0,0,0,0,0,0,0,0,0,0,0,0,0,0,0,0,0,0,0,0.0726,0.0728,0,0.0852,0.0853,0.0854,0.091,0.091,0.091,0.091,0.0963,0.0964,0.0965,0,0,0,0,0,0,0,0,0,0,0,0,0,0.0483,0.0487,0.0726,0.0728,0.073,0.0851,0.0853,0.0854,0.091,0.091,0.091,0.091,0.0962,0.0964,0.0965,0,0,0,0,0,0,0,0,0,0,0,0,0,0.0594,0.0488,0.0726,0.0774,0.078,0.0851,0.0853,0.0855,0.091,0.091,0.091,0.091,0.0962,0.0964,0.0966,0.0976,0,0,0.0972,0.0973,0,0,0,0,0,0,0,0,0.0588,0.0602,0.0765,0.0771,0.0777,0.0867,0.0787,0.0893,0.091,0.0858,0.091,0.091,0.0926,0.0931,0.0951,0.0978,0.0981,0.0972,0.0973,0.0974,0.0975,0,0,0,0,0,0,0,0.058,0.0597,0.0773,0.0767,0.0774,0.0772,0.0788,0.0807,0.0886,0.0862,0.0867,0.0885,0.0928,0.0949,0.0953,0.0981,0.0972,0.0974,0.0975,0.0976,0.0974,0.0973,0,0,0,0,0,0,0.0573,0.0591,0.0769,0.0777,0.0684,0.0776,0.0794,0.0836,0.0888,0.0897,0.0885,0.0887,0.0946,0.0951,0.0955,0.092,0.0974,0.0976,0.0977,0.0975,0.0974,0.0972,0,0,0,0,0,0,0.0568,0.0589,0.0764,0.0686,0.0709,0.0781,0.0827,0.0839,0.0852,0.0906,0.0914,0.0886,0.0946,0.0952,0.0956,0.0924,0.0977,0.0979,0.0977,0.0975,0.0973,0.0881,0,0,0,0,0,0,0.0561,0.0587,0.0598,0.0687,0.0714,0.0772,0.0828,0.0841,0.0865,0.0869,0.0909,0.0915,0.0947,0.0952,0.0958,0.0928,0.098,0.0978,0.0976,0.0974,0.0886,0.0876,0.0868,0,0,0,0,0,0.0552,0.0553,0.0599,0.0619,0.0734,0.077,0.0781,0.0831,0.0864,0.0847,0.0888,0.0914,0.0941,0.0953,0.096,0.0929,0.0979,0.0977,0.0974,0.089,0.0878,0.0868,0,0,0,0,0,0,0.0418,0.0563,0.0613,0.0651,0.0697,0.078,0.077,0.082,0.0844,0.0845,0.0903,0.091,0.0904,0.0928,0.094,0.0922,0.0962,0.096,0.0896,0.0885,0.0877,0.0872,0.0982,0,0,0,0,0,0.0408,0.0467,0.0571,0.0592,0.0614,0.0695,0.0715,0.0753,0.0797,0.0809,0.0848,0.088,0.09,0.0901,0.0923,0.091,0.0943,0.0893,0.0885,0.0877,0.0877,0.0936,0.0933,0.0963,0.0963,0.0963,0,0,0.0357,0.0445,0.0473,0.057,0.0612,0.0615,0.0704,0.072,0.0718,0.0808,0.0802,0.0853,0.0893,0.0884,0.0881,0.0895,0.0871,0.0873,0.0867,0.0871,0.0933,0.093,0.0928,0.0961,0.0962,0.0962,0,0,0.0273,0.0365,0.038,0.0417,0.0487,0.0538,0.0538,0.0619,0.0646,0.0663,0.0726,0.0765,0.0787,0.082,0.0837,0.0793,0.0832,0.0786,0.0729,0.0785,0.0784,0.0783,0.0762,0.076,0.0772,0.0772,0.0772,0,0.0193,0.0251,0.037,0.0375,0.0388,0.0495,0.0468,0.0508,0.0577,0.0612,0.0636,0.0733,0.076,0.0781,0.0758,0.0774,0.0789,0.0765,0.0775,0.0776,0.0777,0.0756,0.0755,0.0767,0.0768,0.0768,0.0769,0,0.0131,0.0155,0.0147,0.0214,0.0234,0.0223,0.0305,0.0331,0.0395,0.0468,0.0525,0.0596,0.0663,0.0665,0.0692,0.0707,0.0705,0.0766,0.0803,0.0768,0.0747,0.0748,0.076,0.0762,0.0764,0.0765,0,0,-0.0002,0.009,0.0082,0.0087,0.0151,0.0161,0.0163,0.0222,0.0267,0.0337,0.0395,0.0443,0.0539,0.0564,0.0623,0.0658,0.0651,0.0696,0.0701,0.0674,0.0715,0.0699,0.0699,0.072,0.0721,0.0722,0.0677,0,-0.0102,-0.0119,-0.0043,-0.0098,-0.0109,-0.0012,-0.0002,0.0071,0.0167,0.025,0.0359,0.0433,0.0482,0.0529,0.0571,0.0654,0.0659,0.0654,0.0754,0.0755,0.0749,0.0703,0.0758,0.0724,0.0678,0.0678,0.0679,0,-0.0189,-0.0183,-0.0237,-0.0201,-0.0196,-0.0208,-0.0129,-0.0106,0.0044,0.0134,0.0247,0.0365,0.0429,0.0491,0.0587,0.0581,0.0624,0.068,0.0681,0.0708,0.0744,0.0764,0.0728,0.0898,0.0681,0.0681,0.0681,0,-0.0311,-0.0322,-0.036,-0.0358,-0.0303,-0.0301,-0.0273,-0.0139,-0.0088,0.0069,0.0138,0.0281,0.0334,0.0443,0.0529,0.0571,0.062,0.0707,0.0719,0.0715,0.0804,0.0807,0.0954,0.0762,0.0762,0.0763,0.0763,0,-0.0426,-0.0461,-0.0417,-0.044,-0.0473,-0.0402,-0.0383,-0.0301,-0.0174,-0.0117,0.0064,0.012,0.0329,0.0394,0.0494,0.0573,0.0587,0.0692,0.0716,0.0764,0.0764,0.0952,0.1017,0.0761,0.0761,0.0762,0.0762,0,-0.0533,-0.051,-0.0548,-0.0523,-0.0523,-0.0543,-0.0485,-0.0447,-0.032,-0.0247,-0.0208,-0.0021,0.0085,0.0246,0.0401,0.05,0.0693,0.0617,0.0611,0.0636,0.0871,0.0927,0.1044,0.1131,0.0674,0.0673,0.0673,0,-0.0575,-0.0605,-0.0616,-0.064,-0.0633,-0.0646,-0.0639,-0.0534,-0.049,-0.0351,-0.0337,-0.0202,-0.0092,0.0102,0.0325,0.0498,0.0637,0.0625,0.0749,0.0872,0.0954,0.0995,0.1065,0.0798,0.0799,0.0799,0.08,0,-0.0651,-0.0645,-0.0663,-0.0718,-0.0745,-0.0774,-0.0767,-0.076,-0.0641,-0.057,-0.0493,-0.0398,-0.0161,0.0104,0.0336,0.0453,0.0774,0.0642,0.0816,0.1089,0.1102,0.1201,0.0777,0.0805,0.0804,0.0804,0.0803,0.0803,-0.0678,-0.0711,-0.0724,-0.0776,-0.0821,-0.088,-0.0906,-0.0881,-0.0846,-0.0701,-0.0605,-0.0339,-0.0009,0.0375,0.0476,0.0828,0.0815,0.0999,0.1051,0.1078,0.1194,0.0725,0.0763,0.0762,0.0762,0.0761,0.0761,0,-0.0689,-0.0722,-0.0779,-0.0838,-0.0895,-0.0907,-0.0959,-0.0958,-0.0943,-0.071,-0.0558,0.0022,0.0343,0.0681,0.1087,0.1263,0.1329,0.1353,0.1481,0.1534,0.1175,0.1218,0.1304,0.1304,0.1303,0.1303,0.1303,0.1303,-0.0689,-0.0737,-0.0774,-0.0871,-0.0917,-0.0991,-0.1028,-0.1031,-0.0877,-0.0524,-0.0067,0.0265,0.0786,0.1309,0.1672,0.1693,0.1886,0.1827,0.1914,0.1735,0.1709,0.1684,0.1745,0.194,0.194,0.2304,0.2308,0.2311]}],[{"header":{"parameterUnit":"m.s-1","parameterCategory":2,"la1":30.2991,"la2":30.254,"lo1":-89.0895,"lo2":-89.0444,"dy":0.0017,"dx":0.0017,"nx":28,"ny":28,"refTime":"2026-02-10T03:00:00:Z","depth":"2","parameterNumber":2,"parameterNumberName":"U-component_of_CURRENTS"},"data":[0,0,0,0,0,0,0,0,0,0,0,0,0,0,0,0,0,0,0,0,0,0,0,0,0,0,0,0,0,0,0,0,0,0,0,0,0,0,0,0,0,0,0,0,0,0,0,0,0,0,0,0,0,0,0,0,0,0,-0.2053,-0.2053,0,-0.2094,-0.2095,-0.2095,-0.2095,-0.2094,-0.2093,-0.2093,-0.2152,-0.2154,-0.2156,0,0,0,0,0,0,0,0,0,0,0,0,0,-0.1983,-0.1984,-0.2053,-0.2053,-0.2054,-0.2094,-0.2095,-0.2095,-0.2095,-0.2094,-0.2093,-0.2092,-0.2151,-0.2154,-0.2157,0,0,0,0,0,0,0,0,0,0,0,0,0,-0.202,-0.1985,-0.2053,-0.2056,-0.2057,-0.2094,-0.2095,-0.2096,-0.2095,-0.2094,-0.2093,-0.2092,-0.215,-0.2154,-0.2157,-0.2203,0,0,-0.2168,-0.2169,0,0,0,0,0,0,0,0,-0.2018,-0.2023,-0.2055,-0.2056,-0.2056,-0.2085,-0.2091,-0.2131,-0.2096,-0.2084,-0.2093,-0.2091,-0.213,-0.2135,-0.215,-0.2206,-0.2208,-0.2168,-0.217,-0.2172,-0.2173,0,0,0,0,0,0,0,-0.2016,-0.2022,-0.2072,-0.2056,-0.2056,-0.2058,-0.2062,-0.2099,-0.2116,-0.2085,-0.2084,-0.2084,-0.2131,-0.2146,-0.2151,-0.2209,-0.2168,-0.2171,-0.2173,-0.2175,-0.237,-0.2373,0,0,0,0,0,0,-0.2006,-0.2019,-0.2071,-0.2073,-0.203,-0.206,-0.2065,-0.208,-0.2115,-0.2119,-0.2085,-0.2084,-0.2141,-0.2147,-0.2153,-0.2277,-0.2172,-0.2175,-0.2177,-0.2367,-0.2371,-0.2374,0,0,0,0,0,0,-0.2004,-0.2011,-0.2069,-0.2044,-0.2051,-0.2062,-0.2079,-0.2081,-0.2096,-0.2115,-0.2119,-0.2096,-0.214,-0.2148,-0.2226,-0.2276,-0.2177,-0.218,-0.2363,-0.2368,-0.2372,-0.2481,0,0,0,0,0,0,-0.2003,-0.201,-0.2025,-0.2044,-0.2052,-0.2096,-0.208,-0.2083,-0.2096,-0.2095,-0.2126,-0.213,-0.214,-0.2221,-0.223,-0.2279,-0.2182,-0.2359,-0.2365,-0.2371,-0.2474,-0.2489,-0.2502,0,0,0,0,0,-0.2,-0.2018,-0.2026,-0.2032,-0.207,-0.2097,-0.2102,-0.2107,-0.2098,-0.2114,-0.216,-0.2129,-0.2263,-0.2228,-0.2236,-0.2288,-0.2356,-0.2364,-0.237,-0.2468,-0.2486,-0.2502,0,0,0,0,0,0,-0.1987,-0.202,-0.2029,-0.2055,-0.2078,-0.2095,-0.2108,-0.2112,-0.2159,-0.2167,-0.2179,-0.2189,-0.2275,-0.2271,-0.2231,-0.2362,-0.2301,-0.231,-0.2372,-0.2389,-0.2403,-0.2378,-0.2185,0,0,0,0,0,-0.1994,-0.2016,-0.2047,-0.2064,-0.2081,-0.2098,-0.211,-0.2121,-0.2157,-0.2174,-0.2202,-0.2246,-0.2312,-0.234,-0.2386,-0.246,-0.2388,-0.2497,-0.2511,-0.2523,-0.2511,-0.2446,-0.2451,-0.2397,-0.2397,-0.2396,0,0,-0.1993,-0.2009,-0.2024,-0.2062,-0.2081,-0.2114,-0.2104,-0.2131,-0.2177,-0.2177,-0.2255,-0.2298,-0.2345,-0.2439,-0.2474,-0.244,-0.2506,-0.2532,-0.2542,-0.2522,-0.2453,-0.2458,-0.2462,-0.2401,-0.2401,-0.24,0,0,-0.2001,-0.2021,-0.2052,-0.2079,-0.2114,-0.2126,-0.2135,-0.2175,-0.2217,-0.2299,-0.2326,-0.2401,-0.2477,-0.2534,-0.257,-0.2687,-0.2585,-0.2701,-0.2752,-0.2691,-0.2693,-0.2694,-0.2617,-0.261,-0.2704,-0.2705,-0.2705,0,-0.2007,-0.2044,-0.2062,-0.2101,-0.2127,-0.2131,-0.2177,-0.2222,-0.2287,-0.2329,-0.2334,-0.2459,-0.2524,-0.2623,-0.2701,-0.2718,-0.2647,-0.2684,-0.2703,-0.2703,-0.2702,-0.2623,-0.2614,-0.2711,-0.271,-0.2709,-0.2709,0,-0.2041,-0.2079,-0.2096,-0.2148,-0.2179,-0.2213,-0.2273,-0.2313,-0.2352,-0.2395,-0.2497,-0.258,-0.264,-0.2697,-0.2759,-0.281,-0.275,-0.2726,-0.2648,-0.2713,-0.2627,-0.2616,-0.272,-0.2717,-0.2716,-0.2714,0,0,-0.2032,-0.2112,-0.2111,-0.2145,-0.2213,-0.2227,-0.2315,-0.2386,-0.2409,-0.2497,-0.2525,-0.2718,-0.2728,-0.2772,-0.283,-0.2823,-0.2819,-0.2795,-0.2789,-0.2697,-0.2651,-0.2588,-0.2568,-0.2778,-0.2777,-0.2776,-0.2594,0,-0.2058,-0.2116,-0.2163,-0.2215,-0.2258,-0.2304,-0.2365,-0.243,-0.2485,-0.2508,-0.26,-0.2653,-0.2765,-0.2788,-0.2816,-0.2814,-0.2791,-0.2868,-0.262,-0.2612,-0.253,-0.2555,-0.2398,-0.2221,-0.2582,-0.258,-0.2579,0,-0.2079,-0.2112,-0.2183,-0.2246,-0.2267,-0.2298,-0.2349,-0.2435,-0.2495,-0.2519,-0.2577,-0.2606,-0.269,-0.2717,-0.2722,-0.2756,-0.2728,-0.27,-0.269,-0.2577,-0.2528,-0.2215,-0.2185,-0.2558,-0.256,-0.2561,-0.2563,0,-0.2031,-0.2118,-0.2163,-0.2193,-0.2273,-0.2311,-0.2362,-0.2439,-0.2484,-0.2521,-0.2488,-0.2557,-0.2572,-0.2551,-0.2607,-0.2634,-0.2523,-0.2529,-0.2424,-0.2417,-0.2208,-0.2185,-0.2463,-0.2463,-0.2464,-0.2464,-0.2465,0,-0.2036,-0.2063,-0.2137,-0.2156,-0.218,-0.2291,-0.2329,-0.2367,-0.2413,-0.2431,-0.2506,-0.2478,-0.253,-0.2504,-0.2522,-0.2451,-0.2453,-0.2418,-0.2365,-0.2247,-0.2231,-0.2465,-0.2468,-0.2457,-0.2459,-0.246,-0.2461,0,-0.1984,-0.2045,-0.2082,-0.215,-0.2165,-0.2198,-0.2273,-0.2287,-0.2357,-0.2357,-0.2355,-0.2394,-0.2373,-0.2385,-0.2332,-0.2334,-0.226,-0.2222,-0.2088,-0.2024,-0.2204,-0.2215,-0.2047,-0.2044,-0.204,-0.2038,-0.2036,0,-0.1975,-0.1982,-0.2027,-0.2019,-0.2051,-0.2113,-0.213,-0.2228,-0.2251,-0.2312,-0.2279,-0.2268,-0.2237,-0.2138,-0.2101,-0.2012,-0.2135,-0.1828,-0.1879,-0.2195,-0.216,-0.2177,-0.2192,-0.1636,-0.1631,-0.1626,-0.1623,0,-0.1913,-0.1915,-0.1934,-0.1907,-0.1916,-0.1937,-0.1995,-0.1984,-0.2119,-0.2105,-0.21,-0.2078,-0.2016,-0.1875,-0.1793,-0.1744,-0.1836,-0.1736,-0.2045,-0.1796,-0.1801,-0.177,-0.1799,-0.1584,-0.1588,-0.1591,-0.1593,-0.1594,-0.1841,-0.1814,-0.1802,-0.177,-0.177,-0.1752,-0.1736,-0.1798,-0.181,-0.1808,-0.189,-0.181,-0.1796,-0.1581,-0.1491,-0.1426,-0.1564,-0.151,-0.1525,-0.1545,-0.1561,-0.1563,-0.1302,-0.1304,-0.1306,-0.1307,-0.1309,0,-0.1726,-0.1687,-0.1645,-0.1607,-0.1545,-0.1596,-0.1609,-0.1586,-0.1559,-0.1589,-0.1574,-0.1409,-0.1299,-0.1287,-0.1118,-0.1088,-0.1098,-0.105,-0.1069,-0.1107,-0.1141,-0.114,-0.0767,-0.0765,-0.0764,-0.0762,0,0,-0.1657,-0.1565,-0.1526,-0.1374,-0.1354,-0.1264,-0.1246,-0.1227,-0.1225,-0.1177,-0.1143,-0.1227,-0.1242,-0.1007,-0.095,-0.0827,-0.0959,-0.0782,-0.1215,-0.1275,-0.1307,-0.1402,-0.1441,0,0,0,0,0]},{"header":{"parameterUnit":"m.s-1","parameterCategory":2,"la1":30.2991,"la2":30.254,"lo1":-89.0895,"lo2":-89.0444,"dy":0.0017,"dx":0.0017,"nx":28,"ny":28,"refTime":"2026-02-10T03:00:00:Z","depth":"2","parameterNumber":3,"parameterNumberName":"V-component_of_CURRENTS"},"data":[0,0,0,0,0,0,0,0,0,0,0,0,0,0,0,0,0,0,0,0,0,0,0,0,0,0,0,0,0,0,0,0,0,0,0,0,0,0,0,0,0,0,0,0,0,0,0,0,0,0,0,0,0,0,0,0,0,0,-0.0383,-0.0383,0,-0.033,-0.0329,-0.0329,-0.0265,-0.0264,-0.0263,-0.0263,-0.0126,-0.0124,-0.0121,0,0,0,0,0,0,0,0,0,0,0,0,0,-0.0369,-0.037,-0.0384,-0.0383,-0.0383,-0.033,-0.0329,-0.0328,-0.0265,-0.0264,-0.0263,-0.0262,-0.0127,-0.0124,-0.012,0,0,0,0,0,0,0,0,0,0,0,0,0,-0.035,-0.037,-0.0384,-0.0346,-0.0343,-0.033,-0.0329,-0.0328,-0.0265,-0.0264,-0.0263,-0.0262,-0.0128,-0.0124,-0.012,-0.0116,0,0,-0.0107,-0.0105,0,0,0,0,0,0,0,0,-0.0351,-0.035,-0.0352,-0.0349,-0.0345,-0.0305,-0.0274,-0.0254,-0.0265,-0.0292,-0.0263,-0.0261,-0.0181,-0.0172,-0.0162,-0.011,-0.0104,-0.0106,-0.0103,-0.0102,-0.01,0,0,0,0,0,0,0,-0.0352,-0.0352,-0.036,-0.0352,-0.0347,-0.0312,-0.0308,-0.027,-0.024,-0.029,-0.0286,-0.0284,-0.0178,-0.0167,-0.0159,-0.0102,-0.0106,-0.0102,-0.01,-0.0098,0.0017,0.0017,0,0,0,0,0,0,-0.0369,-0.0354,-0.0362,-0.0359,-0.0348,-0.0313,-0.0309,-0.0317,-0.0242,-0.0231,-0.0285,-0.0281,-0.0175,-0.0164,-0.0153,-0.0102,-0.0102,-0.0098,-0.0095,0.0016,0.0017,0.0017,0,0,0,0,0,0,-0.0369,-0.037,-0.0364,-0.0356,-0.0353,-0.0315,-0.0325,-0.0317,-0.0302,-0.024,-0.0226,-0.0278,-0.0174,-0.016,-0.0104,-0.0098,-0.0096,-0.0092,0.0016,0.0016,0.0017,-0.0027,0,0,0,0,0,0,-0.0369,-0.0371,-0.0379,-0.0358,-0.0354,-0.036,-0.0326,-0.0317,-0.0304,-0.0298,-0.0229,-0.0216,-0.0172,-0.0111,-0.01,-0.0092,-0.0088,0.0015,0.0016,0.0017,-0.0026,-0.0028,-0.0029,0,0,0,0,0,-0.0368,-0.0389,-0.038,-0.0381,-0.0368,-0.0361,-0.0356,-0.0322,-0.0305,-0.0303,-0.0244,-0.0218,-0.0098,-0.0107,-0.0094,-0.0085,0.0015,0.0016,0.0017,-0.0025,-0.0028,-0.0029,0,0,0,0,0,0,-0.0387,-0.0384,-0.0374,-0.0392,-0.0379,-0.0351,-0.0349,-0.0329,-0.0285,-0.0273,-0.0211,-0.0193,-0.0143,-0.011,-0.0121,-0.0049,-0.0038,-0.0035,-0.0075,-0.0076,-0.0078,-0.0064,-0.0085,0,0,0,0,0,-0.0398,-0.0412,-0.0398,-0.0412,-0.0409,-0.0381,-0.0373,-0.0352,-0.0314,-0.0295,-0.0244,-0.0186,-0.0132,-0.0101,-0.0054,-0.0016,0.0012,-0.0002,-0.0004,-0.0005,0.0016,0.0053,0.0057,0.002,0.002,0.002,0,0,-0.0411,-0.041,-0.0418,-0.0417,-0.0403,-0.0411,-0.0372,-0.0367,-0.0356,-0.0286,-0.0249,-0.0192,-0.0124,-0.0076,-0.0051,-0.0044,0.0015,-0.0004,-0.0006,0.0017,0.0055,0.0058,0.0061,0.0021,0.0021,0.0021,0,0,-0.0443,-0.0442,-0.0461,-0.0458,-0.0446,-0.0432,-0.0435,-0.0406,-0.0372,-0.0335,-0.0274,-0.021,-0.0144,-0.0083,-0.0045,-0.003,0.0002,-0.0021,-0.0013,0.0022,0.0026,0.0029,0.0045,0.0051,-0.0019,-0.0019,-0.0019,0,-0.0455,-0.048,-0.0464,-0.048,-0.0479,-0.0448,-0.0462,-0.0434,-0.0385,-0.0346,-0.0329,-0.0212,-0.0145,-0.0078,-0.0045,-0.0033,-0.0012,-0.0014,0.0019,0.0024,0.0028,0.0044,0.005,-0.0021,-0.0021,-0.0021,-0.0021,0,-0.0496,-0.0517,-0.0529,-0.0541,-0.0536,-0.0546,-0.0511,-0.0494,-0.0454,-0.0403,-0.0328,-0.0244,-0.0164,-0.0139,-0.0068,-0.0003,0.0,0.0007,0.0021,0.0029,0.0045,0.0052,-0.0024,-0.0023,-0.0023,-0.0022,0,0,-0.0526,-0.0553,-0.056,-0.0575,-0.0567,-0.0573,-0.0557,-0.0518,-0.0495,-0.0432,-0.039,-0.0263,-0.0199,-0.0149,-0.008,-0.0023,0.004,0.0024,0.0026,0.0033,0.011,0.0142,0.0153,0.0052,0.0053,0.0054,0.01,0,-0.0562,-0.0613,-0.0606,-0.0648,-0.0669,-0.0638,-0.0626,-0.058,-0.0519,-0.047,-0.037,-0.0303,-0.0213,-0.0171,-0.0094,0.0005,0.0063,0.0028,0.0109,0.0112,0.0134,0.0164,0.0154,0.0197,0.0107,0.0108,0.0109,0,-0.0607,-0.0632,-0.068,-0.07,-0.0704,-0.0718,-0.0691,-0.0668,-0.0579,-0.0527,-0.0441,-0.0359,-0.0245,-0.019,-0.0026,-0.0053,0.0052,0.0115,0.0117,0.0177,0.0159,0.0182,0.0215,0.0122,0.0121,0.012,0.0119,0,-0.0647,-0.0688,-0.0729,-0.0739,-0.075,-0.0752,-0.0746,-0.0676,-0.0639,-0.0558,-0.0524,-0.0402,-0.0332,-0.0212,-0.0021,-0.0024,0.0139,0.0128,0.0241,0.0241,0.0268,0.027,0.0249,0.0249,0.0249,0.0249,0.0249,0,-0.0698,-0.0733,-0.0756,-0.0781,-0.0812,-0.0793,-0.0788,-0.0763,-0.0701,-0.065,-0.0544,-0.0487,-0.0321,-0.0195,-0.0053,0.0129,0.0112,0.0263,0.027,0.025,0.025,0.0218,0.0214,0.0251,0.025,0.025,0.025,0,-0.0748,-0.0767,-0.0812,-0.0832,-0.0837,-0.0855,-0.0836,-0.0823,-0.0763,-0.0706,-0.0685,-0.0535,-0.0376,-0.0218,-0.0018,0.0097,0.0242,0.0316,0.028,0.0284,0.0317,0.031,0.0408,0.041,0.0412,0.0413,0.0414,0,-0.0784,-0.0814,-0.0852,-0.0874,-0.0887,-0.09,-0.0903,-0.0862,-0.0836,-0.0721,-0.07,-0.0537,-0.0395,-0.0122,0.0085,0.0283,0.0303,0.0397,0.0405,0.0345,0.0341,0.0331,0.0322,0.0404,0.0404,0.0405,0.0406,0,-0.0835,-0.0847,-0.0882,-0.0923,-0.0947,-0.0962,-0.0959,-0.0954,-0.0883,-0.082,-0.07,-0.0585,-0.0307,-0.0069,0.0196,0.0315,0.0352,0.0419,0.0377,0.037,0.0346,0.034,0.033,0.0412,0.0412,0.0411,0.0411,0.0411,-0.0862,-0.0897,-0.0934,-0.0971,-0.0997,-0.1011,-0.1014,-0.0988,-0.094,-0.0818,-0.0703,-0.0503,-0.0279,0.0103,0.0284,0.0446,0.044,0.0488,0.0484,0.0479,0.0476,0.0457,0.0541,0.0541,0.0541,0.0541,0.0542,0,-0.0891,-0.0927,-0.0971,-0.1011,-0.1037,-0.1039,-0.104,-0.101,-0.0948,-0.0801,-0.0654,-0.0377,-0.0107,0.0111,0.038,0.0536,0.0516,0.0555,0.0502,0.0496,0.049,0.0485,0.0554,0.0555,0.0555,0.0555,0,0,-0.0905,-0.0954,-0.0976,-0.1024,-0.1051,-0.1067,-0.1064,-0.1002,-0.09,-0.0735,-0.0572,-0.0356,-0.0089,0.0104,0.03,0.0436,0.042,0.0444,0.0421,0.033,0.0322,0.0444,0.0429,0,0,0,0,0]}],[{"header":{"parameterUnit":"m.s-1","parameterCategory":2,"la1":30.2991,"la2":30.254,"lo1":-89.0895,"lo2":-89.0444,"dy":0.0017,"dx":0.0017,"nx":28,"ny":28,"refTime":"2026-02-10T03:00:00:Z","depth":"4","parameterNumber":2,"parameterNumberName":"U-component_of_CURRENTS"},"data":[0,0,0,0,0,0,0,0,0,0,0,0,0,0,0,0,0,0,0,0,0,0,0,0,0,0,0,0,0,0,0,0,0,0,0,0,0,0,0,0,0,0,0,0,0,0,0,0,0,0,0,0,0,0,0,0,0,0,-0.1334,-0.1335,0,-0.1412,-0.1413,-0.1414,-0.1452,-0.1452,-0.1452,-0.1452,-0.1501,-0.1502,-0.1503,0,0,0,0,0,0,0,0,0,0,0,0,0,-0.1246,-0.1247,-0.1334,-0.1335,-0.1336,-0.1412,-0.1413,-0.1414,-0.1452,-0.1452,-0.1452,-0.1452,-0.1501,-0.1502,-0.1503,0,0,0,0,0,0,0,0,0,0,0,0,0,-0.1298,-0.1247,-0.1334,-0.1365,-0.1369,-0.1412,-0.1413,-0.1414,-0.1452,-0.1452,-0.1452,-0.1452,-0.15,-0.1502,-0.1504,-0.1511,0,0,-0.1509,-0.151,0,0,0,0,0,0,0,0,-0.1295,-0.1301,-0.136,-0.1363,-0.1368,-0.1424,-0.14,-0.1446,-0.1451,-0.1418,-0.1452,-0.1452,-0.1473,-0.1477,-0.149,-0.1513,-0.1516,-0.1509,-0.151,-0.1511,-0.1512,0,0,0,0,0,0,0,-0.1291,-0.1298,-0.1364,-0.1361,-0.1366,-0.1386,-0.1393,-0.1409,-0.1442,-0.1421,-0.1425,-0.1436,-0.1475,-0.1488,-0.1491,-0.1516,-0.1509,-0.1511,-0.1512,-0.1513,-0.1615,-0.1616,0,0,0,0,0,0,-0.1284,-0.1295,-0.1361,-0.1366,-0.1333,-0.1387,-0.1395,-0.1404,-0.1443,-0.145,-0.1436,-0.1437,-0.1485,-0.1489,-0.1493,-0.1555,-0.1511,-0.1513,-0.1514,-0.1613,-0.1615,-0.1617,0,0,0,0,0,0,-0.1281,-0.1289,-0.1358,-0.1334,-0.1344,-0.1388,-0.1398,-0.1406,-0.1443,-0.1454,-0.146,-0.1468,-0.1485,-0.1491,-0.1531,-0.1555,-0.1514,-0.1515,-0.1611,-0.1614,-0.1616,-0.1645,0,0,0,0,0,0,-0.1278,-0.1287,-0.13,-0.1333,-0.1345,-0.1397,-0.1399,-0.1407,-0.1449,-0.1452,-0.1483,-0.1487,-0.1486,-0.1528,-0.1533,-0.1556,-0.1517,-0.1609,-0.1612,-0.1615,-0.1642,-0.1648,-0.1654,0,0,0,0,0,-0.1275,-0.1287,-0.13,-0.1309,-0.1358,-0.1398,-0.1407,-0.1437,-0.145,-0.147,-0.1495,-0.1487,-0.1551,-0.1531,-0.1536,-0.1561,-0.1608,-0.1611,-0.1615,-0.164,-0.1647,-0.1653,0,0,0,0,0,0,-0.1254,-0.1293,-0.1308,-0.1332,-0.137,-0.1405,-0.1428,-0.1452,-0.1489,-0.1497,-0.1507,-0.1512,-0.1559,-0.156,-0.1538,-0.1601,-0.1579,-0.1584,-0.1596,-0.1603,-0.1609,-0.1594,-0.1518,0,0,0,0,0,-0.1255,-0.1278,-0.1318,-0.1341,-0.1359,-0.14,-0.1424,-0.1448,-0.1481,-0.1499,-0.1524,-0.155,-0.1575,-0.1589,-0.1612,-0.1643,-0.1637,-0.1665,-0.167,-0.1675,-0.1668,-0.1687,-0.1693,-0.1629,-0.1629,-0.1629,0,0,-0.1252,-0.128,-0.1292,-0.1339,-0.1369,-0.1403,-0.1415,-0.1458,-0.1493,-0.1497,-0.1554,-0.1575,-0.159,-0.1629,-0.1649,-0.1633,-0.1692,-0.168,-0.1683,-0.1674,-0.1691,-0.1697,-0.1703,-0.1631,-0.1631,-0.1631,0,0,-0.1259,-0.1284,-0.1307,-0.134,-0.1393,-0.142,-0.1439,-0.1491,-0.152,-0.1575,-0.1587,-0.1619,-0.1668,-0.1675,-0.1684,-0.1736,-0.1726,-0.1755,-0.1765,-0.1785,-0.1789,-0.1793,-0.1794,-0.1798,-0.1752,-0.1752,-0.1752,0,-0.1255,-0.1289,-0.1321,-0.1355,-0.1383,-0.143,-0.1463,-0.1501,-0.1564,-0.1583,-0.1599,-0.1668,-0.1684,-0.1712,-0.1735,-0.1746,-0.1753,-0.1734,-0.179,-0.1794,-0.1797,-0.1797,-0.18,-0.1754,-0.1754,-0.1754,-0.1753,0,-0.1275,-0.1311,-0.1328,-0.1384,-0.1421,-0.1457,-0.1509,-0.1553,-0.1597,-0.1627,-0.1682,-0.1708,-0.1741,-0.176,-0.1765,-0.1802,-0.1797,-0.1797,-0.1766,-0.1805,-0.1803,-0.1806,-0.1757,-0.1756,-0.1755,-0.1755,0,0,-0.1236,-0.1324,-0.1332,-0.1362,-0.1438,-0.1466,-0.1527,-0.1581,-0.1615,-0.1674,-0.1716,-0.176,-0.1774,-0.1786,-0.1799,-0.1815,-0.1852,-0.1822,-0.1823,-0.181,-0.1889,-0.1748,-0.1737,-0.1868,-0.1869,-0.187,-0.1876,0,-0.1242,-0.1303,-0.1349,-0.1408,-0.144,-0.1498,-0.1546,-0.1602,-0.1655,-0.1709,-0.1736,-0.1784,-0.1784,-0.181,-0.1827,-0.1855,-0.1863,-0.1849,-0.1863,-0.1862,-0.1722,-0.1737,-0.1873,-0.1878,-0.1879,-0.1879,-0.188,0,-0.1239,-0.1284,-0.1343,-0.1417,-0.1435,-0.1479,-0.1553,-0.1601,-0.1675,-0.1715,-0.1759,-0.1798,-0.1838,-0.184,-0.1876,-0.1873,-0.1882,-0.1892,-0.1892,-0.1747,-0.1726,-0.1832,-0.1886,-0.1885,-0.1885,-0.1884,-0.1884,0,-0.1188,-0.1272,-0.132,-0.1347,-0.1441,-0.1476,-0.1523,-0.16,-0.1646,-0.1723,-0.1773,-0.1813,-0.1858,-0.1875,-0.1898,-0.1903,-0.193,-0.1936,-0.1807,-0.1797,-0.191,-0.1906,-0.1951,-0.1951,-0.1951,-0.1951,-0.1951,0,-0.1161,-0.1197,-0.1302,-0.1325,-0.1373,-0.1446,-0.1501,-0.1553,-0.1643,-0.1693,-0.1769,-0.1812,-0.1876,-0.1906,-0.1908,-0.1852,-0.1934,-0.1798,-0.1785,-0.1924,-0.1921,-0.1912,-0.1908,-0.1951,-0.1951,-0.1951,-0.1951,0,-0.1093,-0.1168,-0.1219,-0.132,-0.1353,-0.1382,-0.1488,-0.1528,-0.1619,-0.1694,-0.1729,-0.1831,-0.185,-0.1881,-0.1909,-0.1851,-0.1822,-0.1782,-0.1916,-0.1913,-0.1677,-0.1675,-0.1637,-0.1632,-0.1627,-0.1624,-0.1621,0,-0.1056,-0.1084,-0.1196,-0.123,-0.128,-0.1343,-0.1392,-0.1497,-0.1547,-0.1687,-0.1717,-0.1788,-0.1831,-0.174,-0.1782,-0.1739,-0.1721,-0.1695,-0.1688,-0.1651,-0.1644,-0.1648,-0.1651,-0.1614,-0.1613,-0.1612,-0.1611,0,-0.0979,-0.1036,-0.1082,-0.1151,-0.1212,-0.1273,-0.1353,-0.1384,-0.1508,-0.1618,-0.1649,-0.1656,-0.1667,-0.1654,-0.162,-0.1598,-0.1706,-0.165,-0.1659,-0.1653,-0.1623,-0.1621,-0.1629,-0.1596,-0.1598,-0.1599,-0.16,0,-0.0913,-0.0924,-0.0997,-0.1046,-0.1126,-0.1176,-0.1234,-0.1295,-0.1353,-0.1517,-0.1519,-0.1581,-0.1657,-0.158,-0.1558,-0.1506,-0.1488,-0.1445,-0.1464,-0.1481,-0.1423,-0.1363,-0.1233,0,0,0,0,0,-0.0836,-0.0844,-0.0886,-0.0941,-0.1025,-0.1071,-0.1198,-0.1266,-0.1399,-0.138,-0.1444,-0.1443,-0.1412,-0.1441,-0.1352,-0.148,-0.1489,-0.1371,-0.145,-0.1514,-0.1531,-0.1474,0,0,0,0,0,0,-0.0787,-0.0818,-0.0841,-0.0846,-0.087,-0.0949,-0.1026,-0.1129,-0.1123,-0.1259,-0.124,-0.1337,-0.1315,-0.1422,-0.1312,-0.1318,-0.1336,-0.1409,-0.1404,-0.1504,-0.152,-0.1533,-0.1481,0,0,0,0,0]},{"header":{"parameterUnit":"m.s-1","parameterCategory":2,"la1":30.2991,"la2":30.254,"lo1":-89.0895,"lo2":-89.0444,"dy":0.0017,"dx":0.0017,"nx":28,"ny":28,"refTime":"2026-02-10T03:00:00:Z","depth":"4","parameterNumber":3,"parameterNumberName":"V-component_of_CURRENTS"},"data":[0,0,0,0,0,0,0,0,0,0,0,0,0,0,0,0,0,0,0,0,0,0,0,0,0,0,0,0,0,0,0,0,0,0,0,0,0,0,0,0,0,0,0,0,0,0,0,0,0,0,0,0,0,0,0,0,0,0,-0.0343,-0.0343,0,-0.0311,-0.0311,-0.031,-0.0273,-0.0272,-0.0272,-0.0271,-0.0205,-0.0203,-0.0202,0,0,0,0,0,0,0,0,0,0,0,0,0,-0.0312,-0.0314,-0.0343,-0.0343,-0.0342,-0.0311,-0.031,-0.031,-0.0273,-0.0272,-0.0272,-0.0271,-0.0205,-0.0204,-0.0202,0,0,0,0,0,0,0,0,0,0,0,0,0,-0.0307,-0.0314,-0.0343,-0.0321,-0.0319,-0.0311,-0.031,-0.031,-0.0273,-0.0272,-0.0271,-0.0271,-0.0206,-0.0204,-0.0202,-0.0204,0,0,-0.0196,-0.0195,0,0,0,0,0,0,0,0,-0.0307,-0.0308,-0.0324,-0.0322,-0.032,-0.0296,-0.0275,-0.0273,-0.0273,-0.0289,-0.0271,-0.027,-0.0233,-0.0229,-0.0223,-0.02,-0.0198,-0.0196,-0.0194,-0.0193,-0.0193,0,0,0,0,0,0,0,-0.0308,-0.0309,-0.0329,-0.0324,-0.0321,-0.0292,-0.0291,-0.0275,-0.0264,-0.0287,-0.0285,-0.0283,-0.0232,-0.0226,-0.0222,-0.0197,-0.0196,-0.0194,-0.0193,-0.0192,-0.0177,-0.0177,0,0,0,0,0,0,-0.0318,-0.031,-0.033,-0.0328,-0.0313,-0.0294,-0.0292,-0.0303,-0.0265,-0.0259,-0.0284,-0.0282,-0.0229,-0.0224,-0.0219,-0.0236,-0.0193,-0.0192,-0.019,-0.0176,-0.0177,-0.0178,0,0,0,0,0,0,-0.0318,-0.0321,-0.0331,-0.0318,-0.0317,-0.0296,-0.0308,-0.0303,-0.0297,-0.0263,-0.0256,-0.0283,-0.0229,-0.0222,-0.0214,-0.0232,-0.0191,-0.0189,-0.0175,-0.0176,-0.0177,-0.0258,0,0,0,0,0,0,-0.0317,-0.0321,-0.0333,-0.0319,-0.0319,-0.0334,-0.0309,-0.0303,-0.0298,-0.0295,-0.026,-0.0253,-0.0227,-0.0218,-0.0212,-0.0229,-0.0187,-0.0174,-0.0175,-0.0177,-0.0254,-0.0262,-0.0268,0,0,0,0,0,-0.0317,-0.0338,-0.0334,-0.0336,-0.0336,-0.0335,-0.0332,-0.0312,-0.0299,-0.0303,-0.0282,-0.0254,-0.0223,-0.0217,-0.0211,-0.0226,-0.0173,-0.0175,-0.0177,-0.0251,-0.026,-0.0268,0,0,0,0,0,0,-0.0331,-0.0336,-0.0331,-0.0353,-0.0347,-0.0329,-0.0333,-0.0318,-0.0305,-0.0302,-0.0266,-0.0258,-0.0259,-0.0231,-0.0226,-0.0226,-0.0193,-0.0193,-0.0251,-0.026,-0.0266,-0.0275,-0.0186,0,0,0,0,0,-0.0341,-0.0359,-0.0353,-0.037,-0.0371,-0.0353,-0.0349,-0.0338,-0.0324,-0.0317,-0.0295,-0.0272,-0.0262,-0.0252,-0.0236,-0.0237,-0.0182,-0.0241,-0.0248,-0.0254,-0.0257,-0.0203,-0.0205,-0.0183,-0.0183,-0.0183,0,0,-0.0351,-0.0356,-0.0366,-0.0374,-0.0368,-0.0379,-0.0349,-0.0352,-0.0357,-0.0313,-0.0315,-0.0297,-0.0268,-0.0272,-0.0269,-0.025,-0.0227,-0.0257,-0.0262,-0.0261,-0.0205,-0.0207,-0.0208,-0.0185,-0.0184,-0.0184,0,0,-0.0377,-0.0386,-0.0406,-0.0409,-0.0407,-0.0399,-0.0403,-0.0391,-0.0383,-0.0385,-0.0358,-0.0354,-0.033,-0.0319,-0.0308,-0.0343,-0.0268,-0.0335,-0.0374,-0.0323,-0.0324,-0.0324,-0.0237,-0.0229,-0.0336,-0.0336,-0.0336,0,-0.0387,-0.0414,-0.041,-0.0428,-0.0435,-0.0414,-0.0432,-0.0425,-0.0411,-0.0407,-0.0395,-0.0372,-0.0355,-0.0357,-0.0375,-0.036,-0.0301,-0.0348,-0.0331,-0.0331,-0.033,-0.024,-0.0231,-0.034,-0.034,-0.0339,-0.0339,0,-0.0421,-0.0446,-0.0459,-0.0478,-0.0485,-0.0499,-0.0492,-0.0493,-0.0481,-0.0469,-0.0467,-0.0446,-0.0428,-0.043,-0.0416,-0.0409,-0.0358,-0.0348,-0.0311,-0.0337,-0.0241,-0.0229,-0.0346,-0.0344,-0.0343,-0.0342,0,0,-0.0436,-0.0475,-0.0481,-0.05,-0.0514,-0.0524,-0.0537,-0.0541,-0.054,-0.0532,-0.0525,-0.0531,-0.051,-0.0497,-0.0476,-0.0446,-0.0393,-0.0401,-0.0397,-0.0315,-0.0242,-0.0241,-0.0227,-0.0376,-0.0375,-0.0374,-0.017,0,-0.0462,-0.0512,-0.0521,-0.0566,-0.059,-0.0584,-0.0597,-0.0597,-0.0583,-0.0569,-0.055,-0.0536,-0.0536,-0.0524,-0.05,-0.0419,-0.0369,-0.0447,-0.0229,-0.0222,-0.0219,-0.0217,-0.0371,-0.0161,-0.0158,-0.0156,-0.0155,0,-0.049,-0.0521,-0.0573,-0.0612,-0.062,-0.0644,-0.0654,-0.066,-0.0638,-0.0622,-0.0608,-0.0572,-0.054,-0.0528,-0.0403,-0.0448,-0.0355,-0.0289,-0.0279,-0.0245,-0.0201,-0.0133,-0.0132,-0.0134,-0.0136,-0.0137,-0.0139,0,-0.0504,-0.0557,-0.0602,-0.0618,-0.0656,-0.0675,-0.0687,-0.0681,-0.0677,-0.0647,-0.0624,-0.0581,-0.0533,-0.0444,-0.0327,-0.0349,-0.0161,-0.0165,-0.0068,-0.0063,-0.0088,-0.0089,-0.0061,-0.0062,-0.0062,-0.0063,-0.0063,0,-0.0529,-0.0565,-0.0617,-0.0644,-0.0689,-0.0702,-0.0727,-0.0727,-0.0708,-0.0691,-0.0652,-0.0608,-0.051,-0.0396,-0.0302,-0.0145,-0.013,-0.0066,-0.002,-0.0123,-0.0131,-0.0077,-0.0081,-0.0055,-0.0057,-0.0058,-0.0059,0,-0.0539,-0.0574,-0.0628,-0.0681,-0.0702,-0.0732,-0.0759,-0.0764,-0.0741,-0.071,-0.0695,-0.06,-0.0454,-0.0335,-0.0154,-0.0096,0.0043,0.0101,0.0015,0.0052,0.0109,0.0098,0.0236,0.0237,0.0239,0.024,0.0241,0,-0.0549,-0.0581,-0.0655,-0.0691,-0.0721,-0.0764,-0.0788,-0.0787,-0.0781,-0.0698,-0.0675,-0.053,-0.0455,-0.0179,-0.0078,0.0126,0.0134,0.022,0.0117,0.0104,0.0136,0.0123,0.011,0.0243,0.0243,0.0243,0.0244,0,-0.0563,-0.0592,-0.0635,-0.0708,-0.0755,-0.0795,-0.0823,-0.0814,-0.0785,-0.0759,-0.0623,-0.049,-0.0314,-0.0153,0.0011,0.014,0.0157,0.0234,0.0231,0.0135,0.0114,0.0141,0.0128,0.0248,0.0247,0.0247,0.0247,0,-0.0564,-0.0596,-0.0656,-0.0714,-0.0777,-0.0811,-0.0823,-0.0792,-0.0772,-0.0677,-0.0622,-0.0445,-0.034,-0.014,0.0003,0.0131,0.0144,0.0162,0.0163,0.0159,0.0042,-0.0002,0.0145,0,0,0,0,0,-0.0559,-0.0598,-0.0658,-0.0723,-0.0784,-0.082,-0.0841,-0.0837,-0.0797,-0.0698,-0.0657,-0.0492,-0.0259,-0.0159,-0.0027,-0.0004,0.0141,0.015,0.0155,0.0273,0.0268,0.0137,0,0,0,0,0,0,-0.0558,-0.0616,-0.0651,-0.0719,-0.0764,-0.0822,-0.0837,-0.0812,-0.0749,-0.0686,-0.0557,-0.0475,-0.0253,-0.0329,-0.0027,0.0011,0.0028,0.0261,0.0263,0.0276,0.0271,0.0267,0.0131,0,0,0,0,0]}]]